This is the latest recevied weather packets stored in our database for station/object KF0JJO. If no packets are shown the sender has not sent any weather packets the latest 10 day(s).
| Time | Temp. | Humidity | Pressure | Rain* | Wind** | Luminosity | Snow |
|---|---|---|---|---|---|---|---|
| 1777734587 | 12.78° C | 35% | 1049.4 hPa | 0 mm | - | 98 W/m² | - |
| 1777734284 | 12.78° C | 34% | 1049.3 hPa | 0 mm | - | 141 W/m² | - |
| 1777733979 | 12.78° C | 35% | 1049.4 hPa | 0 mm | - | 116 W/m² | - |
| 1777733677 | 12.22° C | 37% | 1049.3 hPa | 0 mm | - | 94 W/m² | - |
| 1777733373 | 12.22° C | 36% | 1049.3 hPa | 0 mm | - | 102 W/m² | - |
| 1777733070 | 12.22° C | 37% | 1049.7 hPa | 0 mm | - | 110 W/m² | - |
| 1777732766 | 12.22° C | 38% | 1049.5 hPa | 0 mm | - | 123 W/m² | - |
| 1777732463 | 12.22° C | 38% | 1049.5 hPa | 0 mm | - | 126 W/m² | - |
| 1777732161 | 11.67° C | 38% | 1049.8 hPa | 0 mm | - | 155 W/m² | - |
| 1777731857 | 11.67° C | 40% | 1049.8 hPa | 0 mm | - | 176 W/m² | - |
| 1777731554 | 11.11° C | 41% | 1049.8 hPa | 0 mm | - | 130 W/m² | - |
| 1777731252 | 10.56° C | 41% | 1049.8 hPa | 0 mm | - | 185 W/m² | - |
| 1777730949 | 10.56° C | 41% | 1050 hPa | 0 mm | - | 86 W/m² | - |
| 1777730648 | 10.56° C | 41% | 1050 hPa | 0 mm | - | 93 W/m² | - |
| 1777730343 | 10.56° C | 42% | 1050.1 hPa | 0 mm | - | 52 W/m² | - |
| 1777730040 | 10° C | 43% | 1050.1 hPa | 0 mm | - | 54 W/m² | - |
| 1777729736 | 10° C | 42% | 1049.9 hPa | 0 mm | - | 54 W/m² | - |
| 1777729433 | 10° C | 42% | 1050.1 hPa | 0 mm | - | 54 W/m² | - |
| 1777729129 | 10° C | 44% | 1050.2 hPa | 0 mm | - | 54 W/m² | - |
| 1777728826 | 9.44° C | 45% | 1050.2 hPa | 0 mm | - | 50 W/m² | - |
| 1777728523 | 9.44° C | 44% | 1050.2 hPa | 0 mm | - | 47 W/m² | - |
| 1777728221 | 8.89° C | 45% | 1050.2 hPa | 0 mm | - | 45 W/m² | - |
| 1777727917 | 8.89° C | 45% | 1050.2 hPa | 0 mm | - | 54 W/m² | - |
| 1777727614 | 8.89° C | 46% | 1050.3 hPa | 0 mm | - | 46 W/m² | - |
| 1777727311 | 8.33° C | 46% | 1050.2 hPa | 0 mm | - | 58 W/m² | - |
* Rain latest hour (hover to see other rain measurements)
** Current wind speed in m/s (hover to see current wind gust speed)